Date String (YYYY-MM-DD hh:mm:ss) UTC,Instrument flags,absolute air pressure of the measurement (hPa),sample flow rate (lpm),inlet stack bypass flow (lpm),air temperature of the measurement (°C),ambient temperature measured by the external sensor (°C),aerosol sample conditioner tube jacket temperature (°C),OPC LED temperature (°C),internal box temperature (°C),relative humidity of the measurement (%),span deviation,mass concentration of particles derived from Lorenz-Mie calculation of OPC scattering (μg/m³),mass concentration of particles derived from Lorenz-Mie calculation of OPC scattering (μg/m³),mass concentration of particles derived from Lorenz-Mie calculation of OPC scattering (μg/m³)
DateTimeUTC,F1_M11,P_M11,Q1_M11,Q2_M11,T1_M11,T2_M11,T3_M11,T4_M11,T5_M11,U1_M11,ZSPAN_M11,X2_M11,X0_M11,X1_M11
2023-08-16 15:00:00,SystemResetWarning,0833.8,5.01,000.00,029.1,025.5,000.0,037.4,030.5,30.7,0000.0,0004.24,0009.34,0003.65
2023-08-16 15:01:00,SystemResetWarning,0833.8,5.01,000.00,029.1,025.5,000.0,037.3,030.4,29.2,0000.0,0004.24,0009.37,0003.67
2023-08-16 15:02:00,SystemResetWarning,0833.8,5.00,000.00,029.0,025.9,000.0,037.4,030.4,28.1,0000.0,0004.28,0009.43,0003.68
2023-08-16 15:03:00,SystemResetWarning,0833.8,5.00,000.00,029.0,026.2,000.0,037.4,030.5,27.4,0000.0,0004.28,0009.67,0003.68
2023-08-16 15:04:00,SystemResetWarning,0833.8,5.00,000.00,029.0,026.6,000.0,037.4,030.6,28.6,0000.0,0004.30,0009.75,0003.68
2023-08-16 15:05:00,SystemResetWarning,0833.8,5.00,000.00,029.0,027.0,000.0,037.5,030.7,28.3,0000.0,0004.36,0009.90,0003.67
2023-08-16 15:06:00,SystemResetWarning,0833.8,4.99,000.00,029.1,027.3,000.0,037.5,030.8,27.9,0000.0,0004.33,0009.39,0003.66
2023-08-16 15:07:00,SystemResetWarning,0833.8,5.00,000.00,029.1,027.5,000.0,037.5,030.9,28.7,0000.0,0004.36,0009.21,0003.66
2023-08-16 15:08:00,SystemResetWarning,0833.7,5.00,000.00,029.2,027.5,000.0,037.5,030.9,27.5,0000.0,0004.33,0009.01,0003.65
2023-08-16 15:09:00,SystemResetWarning,0833.8,4.99,000.00,029.1,026.3,000.0,037.4,030.5,25.8,0000.0,0004.34,0008.92,0003.66
2023-08-16 15:10:00,SystemResetWarning,0833.7,5.01,000.00,029.0,025.5,000.0,037.3,030.4,25.7,0000.0,0004.38,0009.86,0003.67
2023-08-16 15:11:00,SystemResetWarning,0833.8,5.01,000.00,029.0,025.8,000.0,037.3,030.4,26.7,0000.0,0004.38,0009.71,0003.68
2023-08-16 15:12:00,SystemResetWarning,0833.8,5.00,000.00,029.0,026.2,000.0,037.3,030.4,28.2,0000.0,0004.42,0009.87,0003.67
2023-08-16 15:13:00,SystemResetWarning,0833.8,4.99,000.00,029.0,026.5,000.0,037.4,030.6,27.9,0000.0,0004.37,0009.95,0003.67
2023-08-16 15:14:00,SystemResetWarning,0833.8,5.01,000.00,029.0,026.9,000.0,037.4,030.7,28.1,0000.0,0004.40,0010.03,0003.67
2023-08-16 15:15:00,SystemResetWarning,0833.8,5.00,000.00,029.1,027.3,000.0,037.4,030.8,28.8,0000.0,0004.39,0009.91,0003.69
2023-08-16 15:16:00,SystemResetWarning,0833.8,4.99,000.00,029.1,027.3,000.0,037.4,030.8,27.7,0000.0,0004.38,0009.90,0003.69
2023-08-16 15:17:00,SystemResetWarning,0833.8,4.99,000.00,029.1,026.2,000.0,037.3,030.5,28.1,0000.0,0004.39,0009.98,0003.70
2023-08-16 15:18:00,SystemResetWarning,0833.8,5.02,000.00,029.0,025.4,000.0,037.2,030.3,27.5,0000.0,0004.38,0010.03,0003.71
2023-08-16 15:19:00,SystemResetWarning,0833.8,5.00,000.00,029.0,025.7,000.0,037.2,030.3,28.0,0000.0,0004.39,0010.02,0003.72
2023-08-16 15:20:00,SystemResetWarning,0833.8,4.99,000.00,028.9,026.1,000.0,037.2,030.4,27.5,0000.0,0004.38,0010.01,0003.73
2023-08-16 15:21:00,SystemResetWarning,0833.8,5.00,000.00,028.9,026.5,000.0,037.3,030.5,28.2,0000.0,0004.34,0009.34,0003.74
2023-08-16 15:22:00,SystemResetWarning,0833.8,5.00,000.00,029.0,026.9,000.0,037.3,030.6,28.0,0000.0,0004.33,0009.34,0003.73
2023-08-16 15:23:00,SystemResetWarning,0833.8,5.00,000.00,029.0,027.2,000.0,037.4,030.7,28.6,0000.0,0004.33,0009.36,0003.74
2023-08-16 15:24:00,SystemResetWarning,0833.8,4.99,000.00,029.0,026.6,000.0,037.3,030.6,27.8,0000.0,0004.37,0009.84,0003.75
2023-08-16 15:25:00,SystemResetWarning,0833.8,5.00,000.00,029.0,025.4,000.0,037.2,030.3,27.9,0000.0,0004.36,0009.21,0003.77
2023-08-16 15:26:00,SystemResetWarning,0833.7,5.02,000.00,028.9,025.3,000.0,037.1,030.2,28.0,0000.0,0004.36,0009.47,0003.77
2023-08-16 15:27:00,SystemResetWarning,0833.8,4.99,000.00,028.9,025.7,000.0,037.1,030.2,27.2,0000.0,0004.34,0010.03,0003.78
2023-08-16 15:28:00,SystemResetWarning,0833.8,4.99,000.00,028.9,026.1,000.0,037.2,030.3,27.0,0000.0,0004.35,0010.13,0003.79
2023-08-16 15:29:00,SystemResetWarning,0833.8,5.00,000.00,028.9,026.6,000.0,037.2,030.5,28.6,0000.0,0004.33,0009.90,0003.79
2023-08-16 15:30:00,SystemResetWarning,0833.8,5.01,000.00,028.9,027.0,000.0,037.3,030.6,27.1,0000.0,0004.33,0009.82,0003.79
2023-08-16 15:31:00,SystemResetWarning,0833.8,5.01,000.00,029.0,027.0,000.0,037.2,030.6,27.4,0000.0,0004.37,0009.99,0003.79
2023-08-16 15:32:00,SystemResetWarning,0833.7,4.99,000.00,028.9,025.9,000.0,037.1,030.4,27.8,0000.0,0004.46,0010.95,0003.79
2023-08-16 15:33:00,SystemResetWarning,0833.7,5.00,000.00,028.9,025.2,000.0,037.0,030.2,28.0,0000.0,0004.62,0012.96,0003.80
2023-08-16 15:34:00,SystemResetWarning,0833.7,5.02,000.00,028.8,025.6,000.0,037.0,030.3,28.1,0000.0,0004.78,0014.96,0003.81
2023-08-16 15:35:00,SystemResetWarning,0833.7,5.00,000.00,028.8,025.9,000.0,037.1,030.3,27.2,0000.0,0004.77,0014.86,0003.81
2023-08-16 15:36:00,SystemResetWarning,0833.7,4.99,000.00,028.8,026.3,000.0,037.1,030.3,26.0,0000.0,0004.73,0015.68,0003.80
2023-08-16 15:37:00,SystemResetWarning,0833.7,5.00,000.00,028.9,026.8,000.0,037.1,030.5,25.7,0000.0,0004.72,0015.72,0003.78
2023-08-16 15:38:00,SystemResetWarning,0833.7,5.00,000.00,028.9,027.1,000.0,037.2,030.6,25.8,0000.0,0004.72,0014.95,0003.77
2023-08-16 15:39:00,SystemResetWarning,0833.7,4.98,000.00,028.9,026.5,000.0,037.1,030.4,25.5,0000.0,0004.76,0014.98,0003.76
2023-08-16 15:40:00,SystemResetWarning,0833.7,4.99,000.00,028.8,025.4,000.0,037.0,030.2,25.6,0000.0,0004.80,0015.03,0003.76
2023-08-16 15:41:00,SystemResetWarning,0833.7,5.01,000.00,028.8,025.5,000.0,036.9,030.2,24.2,0000.0,0004.81,0015.12,0003.76
2023-08-16 15:42:00,SystemResetWarning,0833.7,5.01,000.00,028.8,025.8,000.0,037.0,030.2,24.4,0000.0,0004.79,0015.08,0003.76
2023-08-16 15:43:00,SystemResetWarning,0833.7,4.99,000.00,028.8,026.2,000.0,037.0,030.3,25.0,0000.0,0004.76,0014.62,0003.75
2023-08-16 15:44:00,SystemResetWarning,0833.6,5.00,000.00,028.8,026.6,000.0,037.1,030.4,24.6,0000.0,0004.61,0012.22,0003.74
2023-08-16 15:45:00,SystemResetWarning,0833.7,5.01,000.00,028.9,027.0,000.0,037.1,030.5,24.9,0000.0,0004.38,0009.66,0003.72
2023-08-16 15:46:00,SystemResetWarning,0833.6,4.99,000.00,028.9,026.3,000.0,037.0,030.4,25.4,0000.0,0004.34,0009.48,0003.70
2023-08-16 15:47:00,SystemResetWarning,0833.7,4.99,000.00,028.8,025.3,000.0,036.9,030.2,24.3,0000.0,0004.34,0008.50,0003.69
2023-08-16 15:48:00,SystemResetWarning,0833.7,5.01,000.00,028.8,025.4,000.0,036.9,030.2,25.4,0000.0,0004.31,0008.53,0003.70
2023-08-16 15:49:00,SystemResetWarning,0833.7,5.01,000.00,028.7,025.7,000.0,036.9,030.2,26.2,0000.0,0004.31,0008.74,0003.69
2023-08-16 15:50:00,SystemResetWarning,0833.7,4.99,000.00,028.7,026.2,000.0,037.0,030.2,26.0,0000.0,0004.28,0008.81,0003.69
2023-08-16 15:51:00,SystemResetWarning,0833.7,5.00,000.00,028.8,026.6,000.0,037.0,030.4,25.9,0000.0,0004.23,0009.09,0003.69
2023-08-16 15:52:00,SystemResetWarning,0833.7,5.00,000.00,028.8,027.0,000.0,037.1,030.5,24.6,0000.0,0004.24,0009.44,0003.69
2023-08-16 15:53:00,SystemResetWarning,0833.7,4.99,000.00,028.9,026.9,000.0,037.0,030.5,24.7,0000.0,0004.22,0009.90,0003.68
2023-08-16 15:54:00,SystemResetWarning,0833.7,4.99,000.00,028.8,025.8,000.0,036.9,030.3,24.6,0000.0,0004.20,0010.12,0003.69
2023-08-16 15:55:00,SystemResetWarning,0833.7,5.02,000.00,028.8,025.3,000.0,036.9,030.2,24.5,0000.0,0004.22,0010.20,0003.69
2023-08-16 15:56:00,SystemResetWarning,0833.6,5.00,000.00,028.7,025.6,000.0,036.9,030.2,24.0,0000.0,0004.19,0010.00,0003.69
2023-08-16 15:57:00,SystemResetWarning,0833.7,4.99,000.00,028.7,026.0,000.0,036.9,030.2,23.7,0000.0,0004.17,0009.83,0003.69
2023-08-16 15:58:00,SystemResetWarning,0833.7,5.00,000.00,028.7,026.5,000.0,037.0,030.4,23.1,0000.0,0004.19,0010.64,0003.69
2023-08-16 15:59:00,SystemResetWarning,0833.7,5.00,000.00,028.8,026.9,000.0,037.0,030.5,23.8,0000.0,0004.20,0011.35,0003.69
